Location: Deuil
(48.9767°N, 2.3272°E)
Time: 03:38:43
(UTC+00:00)

Cosmos 2360 Rocket - Pass Details

Date: 30 May 2022
Orbit: 832 x 846 km, 71.0° (Epoch: 03 July)

Event Time Altitude Azimuth Distance (km) Brightness Sun altitude
Exits shadow 22:17:05 - 213° (SSW) 2,717 4.5 -16.3°
Reaches altitude 10° 22:17:48 10° 214° (SW) 2,445 4.3 -16.3°
Maximum altitude 22:23:25 75° 300° (WNW) 874 2.4 -16.7°
Drops below altitude 10° 22:29:05 10° 26° (NNE) 2,470 5.3 -17.0°
Sets 22:31:34 0° 28° (NNE) 3,411 6.0 -17.1°
